[[{"header":{"parameterUnit":"m.s-1","parameterCategory":1,"la1":30.2991,"la2":30.254,"lo1":-89.0895,"lo2":-89.0444,"dy":0.0017,"dx":0.0017,"nx":28,"ny":28,"refTime":"2025-06-09T09:00:00:Z","depth":0,"parameterNumber":2,"parameterNumberName":"U-component_of_WINDS"},"data":[0,0,0,0,0,0,0,0,0,0,0,0,0,0,0,0,0,0,0,0,0,0,0,0,0,0,0,0,0,0,0,0,0,0,0,0,0,0,0,0,0,0,0,0,0,0,0,0,0,0,0,0,0,0,0,0,0,0,5.4554,5.4556,0,5.4675,5.4676,5.4678,5.4561,5.4557,5.4552,5.4548,5.4671,5.4678,5.4686,0,0,0,0,0,0,0,0,0,0,0,0,0,5.4221,5.4227,5.4554,5.4556,5.4557,5.4675,5.4676,5.4678,5.4562,5.4556,5.4551,5.4545,5.4668,5.4677,5.4686,0,0,0,0,0,0,0,0,0,0,0,0,0,5.4356,5.423,5.4554,5.4514,5.4511,5.4674,5.4676,5.4678,5.4563,5.4556,5.4549,5.4543,5.4665,5.4676,5.4688,5.4897,0,0,5.4722,5.4727,0,0,0,0,0,0,0,0,5.4348,5.4368,5.4518,5.4517,5.4514,5.4596,5.4604,5.4752,5.4565,5.4543,5.4547,5.4539,5.4651,5.4663,5.4701,5.4902,5.4908,5.4723,5.473,5.4735,5.4738,0,0,0,0,0,0,0,5.4339,5.4362,5.4602,5.452,5.4518,5.4488,5.45,5.4631,5.4635,5.4545,5.4537,5.4552,5.4649,5.4691,5.4703,5.491,5.4723,5.4733,5.474,5.4745,5.5283,5.529,0,0,0,0,0,0,5.4334,5.4355,5.4598,5.4606,5.4413,5.45,5.4513,5.4577,5.4633,5.4635,5.4558,5.4547,5.4675,5.469,5.4707,5.4951,5.4735,5.4746,5.4752,5.5275,5.5284,5.5292,0,0,0,0,0,0,5.4328,5.4357,5.4593,5.4478,5.4506,5.4513,5.4586,5.4583,5.4624,5.4643,5.4643,5.46,5.467,5.4691,5.4849,5.4954,5.4751,5.4761,5.5267,5.5278,5.5288,5.5444,0,0,0,0,0,0,5.4319,5.4356,5.4436,5.4481,5.4513,5.4734,5.4592,5.459,5.4644,5.463,5.4683,5.4685,5.4666,5.4833,5.4861,5.4966,5.477,5.5257,5.5272,5.5285,5.5429,5.5459,5.5484,0,0,0,0,0,5.4307,5.4476,5.4441,5.447,5.4613,5.4741,5.4759,5.4734,5.4653,5.4733,5.4745,5.4683,5.4939,5.485,5.488,5.4991,5.525,5.5268,5.5284,5.5417,5.5453,5.5484,0,0,0,0,0,0,5.4443,5.4481,5.4442,5.4631,5.4683,5.4721,5.4821,5.4774,5.485,5.4834,5.48,5.4813,5.4979,5.5001,5.4901,5.5193,5.5081,5.5105,5.5172,5.5207,5.5234,5.5223,5.478,0,0,0,0,0,5.4495,5.4596,5.4624,5.4787,5.4815,5.4814,5.4869,5.4845,5.4898,5.4919,5.4943,5.4996,5.5088,5.5149,5.5235,5.5433,5.544,5.5524,5.5551,5.5574,5.5593,5.5694,5.573,5.5348,5.5347,5.5347,0,0,5.4603,5.4636,5.4702,5.4815,5.4853,5.4956,5.4833,5.4949,5.5025,5.4937,5.5086,5.5106,5.5163,5.534,5.5419,5.5364,5.5701,5.5595,5.5613,5.562,5.5715,5.5752,5.5784,5.5359,5.5357,5.5355,0,0,5.4851,5.4889,5.5027,5.5067,5.5125,5.5123,5.5157,5.5201,5.521,5.536,5.5294,5.5384,5.5545,5.5586,5.5628,5.5891,5.5835,5.5921,5.6063,5.6162,5.6192,5.6218,5.6307,5.634,5.5941,5.5941,5.5942,0,5.4978,5.5132,5.5104,5.5223,5.5272,5.5198,5.5335,5.5376,5.546,5.5496,5.5433,5.5629,5.5663,5.5847,5.591,5.5949,5.5983,5.5912,5.619,5.6216,5.624,5.6324,5.6358,5.5951,5.595,5.5949,5.5948,0,5.5282,5.5389,5.5494,5.5575,5.5637,5.5766,5.5755,5.5821,5.5793,5.5796,5.5947,5.5985,5.6075,5.6118,5.6092,5.6297,5.626,5.6195,5.608,5.6287,5.6365,5.6397,5.5964,5.5961,5.5958,5.5956,0,0,5.5617,5.568,5.5719,5.5753,5.5812,5.5893,5.6018,5.6105,5.616,5.6222,5.6322,5.6458,5.6397,5.6445,5.6423,5.6511,5.671,5.6433,5.6434,5.6479,5.6933,5.6978,5.7016,5.6675,5.6681,5.6686,5.6926,0,5.5863,5.6077,5.6055,5.6258,5.6354,5.6285,5.6392,5.6439,5.6446,5.6528,5.6536,5.6631,5.6545,5.6573,5.6657,5.6668,5.6799,5.6651,5.6764,5.6769,5.6747,5.7058,5.7107,5.7331,5.6957,5.6962,5.6966,0,5.6178,5.6248,5.6461,5.6501,5.6541,5.6638,5.6714,5.6795,5.6846,5.6844,5.6898,5.6859,5.6981,5.6868,5.7034,5.6933,5.6978,5.6991,5.6999,5.7004,5.6876,5.7067,5.7403,5.7434,5.7015,5.7011,5.7008,0,5.6394,5.6542,5.6687,5.672,5.6772,5.6841,5.6866,5.691,5.6963,5.7031,5.7064,5.7146,5.7189,5.7252,5.7236,5.7156,5.7404,5.729,5.7403,5.7403,5.7454,5.745,5.7797,5.7493,5.7493,5.7492,5.7491,0,5.6668,5.6799,5.6784,5.6873,5.7017,5.6991,5.7134,5.715,5.719,5.7279,5.7226,5.731,5.7286,5.7369,5.7358,5.7494,5.7516,5.7516,5.751,5.7517,5.7517,5.7543,5.7525,5.7501,5.7499,5.7497,5.7496,0,5.6932,5.6928,5.708,5.7117,5.713,5.7234,5.7264,5.7347,5.735,5.7463,5.7488,5.7492,5.7587,5.7578,5.7686,5.7678,5.7844,5.7823,5.7827,5.782,5.7931,5.7919,5.8303,5.8349,5.802,5.8024,5.8026,0,5.7104,5.7203,5.725,5.7306,5.7335,5.7426,5.7479,5.7457,5.7514,5.7579,5.7653,5.7743,5.7813,5.7967,5.7979,5.806,5.8037,5.8166,5.8048,5.8051,5.8032,5.8024,5.8031,5.8187,5.8191,5.8194,5.8197,0,5.7408,5.7401,5.748,5.7558,5.7623,5.7683,5.7738,5.7787,5.7769,5.7837,5.7932,5.7987,5.8095,5.8184,5.826,5.8284,5.8237,5.8234,5.8263,5.8269,5.8265,5.8263,5.7884,5.8224,5.8221,5.8219,5.8218,5.8217,5.7627,5.771,5.7755,5.7844,5.7883,5.7935,5.8013,5.8026,5.8105,5.8191,5.8173,5.828,5.8326,5.8423,5.8455,5.8537,5.849,5.8534,5.8544,5.8554,5.8564,5.8256,5.8552,5.8551,5.855,5.855,5.8549,0,5.7923,5.7949,5.8031,5.8109,5.8178,5.813,5.8187,5.8247,5.8342,5.8389,5.8459,5.8567,5.8653,5.8671,5.8752,5.8814,5.8794,5.8836,5.8828,5.8833,5.8604,5.8568,5.885,5.885,5.885,5.885,5.885,5.885,5.8085,5.8221,5.822,5.8374,5.8398,5.8502,5.8538,5.8585,5.8622,5.8745,5.8815,5.8827,5.8862,5.8945,5.902,5.9023,5.9053,5.9102,5.9096,5.888,5.885,5.8821,5.8787,5.911,5.911,5.9317,5.9319,5.9321]},{"header":{"parameterUnit":"m.s-1","parameterCategory":1,"la1":30.2991,"la2":30.254,"lo1":-89.0895,"lo2":-89.0444,"dy":0.0017,"dx":0.0017,"nx":28,"ny":28,"refTime":"2025-06-09T09:00:00:Z","depth":0,"parameterNumber":3,"parameterNumberName":"V-component_of_WINDS"},"data":[0,0,0,0,0,0,0,0,0,0,0,0,0,0,0,0,0,0,0,0,0,0,0,0,0,0,0,0,0,0,0,0,0,0,0,0,0,0,0,0,0,0,0,0,0,0,0,0,0,0,0,0,0,0,0,0,0,0,2.6614,2.6615,0,2.6669,2.6669,2.667,2.6594,2.6591,2.6589,2.6586,2.6644,2.6648,2.6652,0,0,0,0,0,0,0,0,0,0,0,0,0,2.6445,2.6449,2.6614,2.6615,2.6615,2.6668,2.6669,2.667,2.6594,2.6591,2.6588,2.6585,2.6642,2.6647,2.6652,0,0,0,0,0,0,0,0,0,0,0,0,0,2.6511,2.645,2.6614,2.6584,2.6582,2.6668,2.6669,2.667,2.6595,2.6591,2.6587,2.6583,2.6641,2.6647,2.6653,2.6772,0,0,2.6671,2.6674,0,0,0,0,0,0,0,0,2.6507,2.6517,2.6588,2.6586,2.6584,2.662,2.6631,2.6704,2.6596,2.659,2.6586,2.6581,2.6639,2.6645,2.6665,2.6774,2.6777,2.6672,2.6676,2.6678,2.668,0,0,0,0,0,0,0,2.6503,2.6515,2.6636,2.6589,2.6587,2.6568,2.6573,2.6644,2.6637,2.659,2.6585,2.6592,2.6638,2.6659,2.6665,2.6778,2.6672,2.6677,2.6681,2.6683,2.6986,2.6991,0,0,0,0,0,0,2.6502,2.6511,2.6634,2.6637,2.6535,2.6574,2.658,2.6613,2.6636,2.6636,2.6596,2.6589,2.665,2.6658,2.6667,2.6807,2.6678,2.6684,2.6687,2.6982,2.6987,2.6992,0,0,0,0,0,0,2.6498,2.6513,2.6632,2.6573,2.6586,2.6582,2.6619,2.6616,2.6637,2.664,2.6638,2.6619,2.6648,2.6659,2.6746,2.6808,2.6687,2.6692,2.6977,2.6984,2.699,2.7089,0,0,0,0,0,0,2.6494,2.6513,2.6558,2.6574,2.659,2.671,2.6623,2.662,2.6648,2.6639,2.6661,2.6661,2.6645,2.6737,2.6752,2.6814,2.6697,2.6971,2.698,2.6988,2.708,2.7098,2.7113,0,0,0,0,0,2.6488,2.6584,2.656,2.6576,2.6646,2.6713,2.6722,2.6702,2.6653,2.6698,2.67,2.666,2.6799,2.6747,2.6763,2.6828,2.6967,2.6977,2.6987,2.7072,2.7094,2.7113,0,0,0,0,0,0,2.6576,2.6586,2.656,2.6664,2.6688,2.67,2.6757,2.6726,2.6765,2.6755,2.6728,2.6734,2.6827,2.6836,2.6778,2.6943,2.6875,2.6889,2.6934,2.6955,2.6972,2.6968,2.6702,0,0,0,0,0,2.6607,2.6661,2.6667,2.6758,2.6771,2.6762,2.6791,2.6773,2.6797,2.6807,2.6815,2.6841,2.689,2.6923,2.6968,2.708,2.7084,2.7133,2.715,2.7163,2.7176,2.7235,2.7257,2.7025,2.7025,2.7024,0,0,2.6673,2.6685,2.6721,2.6776,2.6793,2.6849,2.6772,2.6835,2.6876,2.6817,2.69,2.6906,2.6933,2.7033,2.7078,2.7044,2.724,2.7176,2.7187,2.7192,2.7247,2.7269,2.7289,2.7031,2.703,2.7029,0,0,2.6822,2.6836,2.6913,2.6931,2.6957,2.695,2.6969,2.6986,2.6987,2.707,2.7026,2.7075,2.716,2.7181,2.7203,2.7357,2.7322,2.7372,2.746,2.7518,2.7536,2.7553,2.7608,2.7628,2.7385,2.7385,2.7385,0,2.6901,2.6983,2.6957,2.7023,2.7048,2.6996,2.7074,2.7093,2.7133,2.7152,2.7112,2.7217,2.7232,2.7336,2.7373,2.7392,2.7413,2.737,2.7536,2.7552,2.7566,2.7618,2.7639,2.7391,2.739,2.7389,2.7389,0,2.7078,2.7136,2.7195,2.7234,2.7266,2.7338,2.7323,2.7358,2.7337,2.7334,2.7418,2.7433,2.748,2.7503,2.7483,2.7604,2.7582,2.754,2.7471,2.7595,2.7643,2.7663,2.7399,2.7397,2.7395,2.7394,0,0,2.7285,2.7307,2.733,2.7346,2.737,2.7414,2.7483,2.7528,2.7559,2.7588,2.7645,2.7717,2.7678,2.7703,2.7684,2.7735,2.7856,2.7687,2.7687,2.7718,2.799,2.8022,2.8045,2.7833,2.7836,2.7839,2.7988,0,2.7433,2.7552,2.753,2.7645,2.7698,2.7649,2.7708,2.773,2.7729,2.7773,2.7772,2.7824,2.7768,2.7782,2.783,2.7831,2.7911,2.782,2.7886,2.7889,2.7881,2.8071,2.8105,2.8244,2.8006,2.801,2.8012,0,2.7622,2.7657,2.7777,2.7792,2.7813,2.7867,2.7906,2.7949,2.7972,2.7968,2.7995,2.7966,2.8035,2.7964,2.8058,2.7997,2.8022,2.8026,2.8031,2.8037,2.7958,2.8082,2.8288,2.8309,2.8042,2.8039,2.8037,0,2.7761,2.7837,2.7919,2.7935,2.7954,2.7993,2.8003,2.8021,2.8049,2.8084,2.8101,2.8144,2.8167,2.82,2.8184,2.8134,2.8281,2.8208,2.8279,2.828,2.8313,2.8311,2.8527,2.8329,2.8329,2.8328,2.8328,0,2.7928,2.8004,2.7981,2.8032,2.8115,2.8089,2.8172,2.8176,2.8193,2.8243,2.8203,2.8251,2.8227,2.8273,2.8261,2.834,2.8351,2.8349,2.8345,2.8353,2.8354,2.837,2.836,2.8334,2.8333,2.8331,2.833,0,2.8098,2.8086,2.8171,2.8182,2.8186,2.8247,2.8256,2.8303,2.8298,2.8362,2.8376,2.8368,2.8421,2.8407,2.8465,2.8456,2.8557,2.854,2.8549,2.8545,2.8617,2.861,2.885,2.8881,2.8663,2.8665,2.8667,0,2.8206,2.8263,2.8279,2.8309,2.8322,2.8371,2.8399,2.8376,2.8407,2.8436,2.848,2.8528,2.8566,2.8652,2.8652,2.8695,2.868,2.8761,2.8686,2.8692,2.8681,2.8678,2.8684,2.8776,2.8779,2.8781,2.8782,0,2.8399,2.839,2.8432,2.8471,2.8506,2.8536,2.8563,2.859,2.8568,2.8605,2.8657,2.8687,2.8744,2.8793,2.8833,2.8843,2.881,2.8806,2.8824,2.8833,2.8836,2.8836,2.859,2.8801,2.8799,2.8797,2.8796,2.8796,2.8541,2.8589,2.8607,2.8655,2.8672,2.8698,2.8742,2.8742,2.8785,2.883,2.8813,2.8874,2.8894,2.8943,2.8958,2.9005,2.8975,2.9002,2.9009,2.9016,2.9025,2.8828,2.9012,2.9012,2.9011,2.9011,2.901,0,2.8732,2.8741,2.8785,2.8823,2.886,2.8824,2.8852,2.8885,2.8939,2.896,2.8997,2.9058,2.9104,2.9107,2.9151,2.9188,2.9174,2.92,2.9198,2.9201,2.905,2.9029,2.9211,2.9211,2.9211,2.9211,2.9211,2.9211,2.8836,2.8915,2.8908,2.8995,2.9003,2.9061,2.908,2.9103,2.912,2.9189,2.9227,2.9228,2.9242,2.9286,2.9328,2.9327,2.9346,2.9378,2.9372,2.9231,2.9211,2.9192,2.9173,2.9382,2.9382,2.9519,2.952,2.9521]}]]